Regional Weather Roundup
Issued by NWS Cleveland, OH

Home | Current Version | Previous Version | Text Only | Print | Product List | Glossary Off
Versions: 1 2 3 4 5 6 7 8 9 10 11 12 13 14 15 16 17 18 19 20 21 22 23 24 25 26 27 28 29 30 31 32 33 34 35 36 37 38 39 40 41 42 43 44 45 46 47 48 49 50

000
ASUS41 KCLE 261912
RWRCLE
OHIO REGIONAL WEATHER ROUNDUP
NATIONAL WEATHER SERVICE WILMINGTON, OH
300 PM EDT THU MAY 26 2016

NOTE: "FAIR" INDICATES FEW OR NO CLOUDS BELOW 12,000 FEET WITH NO
SIGNIFICANT WEATHER AND/OR OBSTRUCTIONS TO VISIBILITY.

OHZ001>008-015>018-024>027-034-035-043-044-262000-
   NORTHWEST OHIO

CITY           SKY/WX    TMP DP  RH WIND       PRES   REMARKS
DEFIANCE       CLOUDY    83  63  50 SW10G20   29.95F
FINDLAY        PTSUNNY   82  61  48 SW14      29.96F
TOLEDO EXPRESS PTSUNNY   83  62  49 SW9       29.94F
TOLEDO EXEC    FAIR      85  62  46 SW12      29.95F
LIMA           FAIR      80  67  64 SW12      29.99F
$$

OHZ009>014-019>023-028>033-038-089-262000-
   NORTHEAST OHIO

CITY           SKY/WX    TMP DP  RH WIND       PRES   REMARKS
CLE-HOPKINS    PTSUNNY   83  62  49 S14G26    30.02S
CLE-LAKEFRONT  FAIR      83  63  50 S14G22    29.98F
CUY CO. ARPT   PTSUNNY   86  66  51 SW10      30.01F
LORAIN-ELYRIA  PTSUNNY   82  62  50 SW16G23   30.00S
ASHTABULA      FAIR      82  61  48 SW15G22   30.02S
AKRON-CANTON   PTSUNNY   79  64  60 S17       30.05F
WOOSTER        LGT RAIN  81  63  54 SW16G24   30.04F
MANSFIELD      PTSUNNY   79  63  57 SW14      30.03F
YOUNGSTOWN     CLOUDY    81  62  52 SW13G21   30.04S
$$

OHZ042-051>053-060>062-070>072-077>081-262000-
  SOUTHWEST OHIO

CITY           SKY/WX    TMP DP  RH WIND       PRES   REMARKS
CINC-COVINGTON PTSUNNY   79  68  69 S8        30.03F
CINC-LUNKEN    PTSUNNY   78  69  73 S10       30.03F
HAMILTON       FAIR      82  69  64 SW9       30.03F
DAYTON         PTSUNNY   76  65  68 S9        30.03F
WRIGHT-PAT AFB CLOUDY    79  68  69 SW9       30.02F
DAYTON GENERAL CLOUDY    78  65  63 S9        30.03F
WILMINGTON     PTSUNNY   80  67  64 SW13      30.05F
$$

OHZ036-037-039>041-045>050-054>059-063>069-073>076-082>088-262000-
  CENTRAL AND SOUTHEAST OHIO

CITY           SKY/WX    TMP DP  RH WIND       PRES   REMARKS
COLUMBUS       CLOUDY    77  65  66 S13       30.03F
OSU AIRPORT    CLOUDY    78  65  63 SW12      30.03F
BOLTON FIELD   CLOUDY    79  66  65 S10       30.04F
RICKENBACK AFB CLOUDY    78  66  65 S14G21    30.04F
NEWARK         FAIR      82  64  54 SW13      30.03F
MARION         PTSUNNY   82  65  56 SW9G20    30.01F
LANCASTER      CLOUDY    79  65  62 S9G16     30.06F
ZANESVILLE     PTSUNNY   82  66  58 S13       30.06F
NEW PHILLY     FAIR      80  63  55 SW8       30.06F
$$




USA.gov is the U.S. government's official web portal to all federal, state and local government web resources and services.